Find FSKL5695-12

NORAD ID: 64886 Int'l Des: NNA 2025-155 Owner: RATEKS Country: RU operational
LEOCIRCULARRETROGRADESSO

現在のビュー

3D地球を読み込み中...

FSKL5695-12について

説明を読み込み中...

次回通過

Passes for default location (London). Set your location on the main map for personalized predictions.

高度履歴

Loading altitude history...

軌道要素

1 64886U 25155L 26149.55035206 .00037783 00000-0 93196-3 0 9997
2 64886 97.4452 120.0955 0005108 202.6653 157.4369 15.40433276 78066
Epoch: May 29, 2026 • Age: 17 hours

現在のステータス

高度 456.7 km
速度 7.64 km/s
衛星直下点 -39.90°S, 39.46°W
打ち上げ日 Jul 25, 2025
運用期間 0.8 years
タイプ other

技術仕様

分類 Payload
質量 3.00 kg
乾燥質量 3.00 kg
総質量 3.00 kg
長さ 0.30 m
直径 0.10 m
スパン 0.30 m
形状 Box
製造者 RATEKS
バスタイプ Cubesat 3U
フェーズステータス In Orbit
所有者/国 RATEKS/RU

Most Searched